{"data":{"norad_id":67026,"epoch":"2026-05-25T01:44:39.696288Z","epoch_age_seconds":68750,"freshness":"FRESH","line1":"1 67026U 25293Z   26145.07268167  .00003258  00000+0  28063-3 0  9996","line2":"2 67026  70.0006 261.6854 0003308 270.0503  90.0277 14.98336759 26322","mean_motion":14.98336759,"eccentricity":0.0003308,"inclination_deg":70.0006,"raan_deg":261.6854,"arg_perigee_deg":270.0503,"mean_anomaly_deg":90.0277,"bstar":0.00028063,"rev_number":2632,"period_min":96.106565586835,"perigee_km":569.73587247896,"apogee_km":574.33410626713,"semimajor_km":6950.171989373,"source":"CELESTRAK","updated_at":"2026-05-25T13:38:21.434560Z"}}